Weather History for KGDV - March, 2014

Change the Weather History Date:

Wednesday, March 19, 2014

  Actual Average (WUND) Record (WUND)
Temperature  
Mean Temperature 36 °F -  
Max Temperature 50 °F - - (-1)
Min Temperature 23 °F - - (-1)
Degree Days  
Heating Degree Days 28    
Moisture  
Dew Point 23 °F    
Average Humidity 61    
Maximum Humidity 93    
Minimum Humidity 26    
Precipitation  
Precipitation 0.00 in - - ()
Sea Level Pressure  
Sea Level Pressure 29.95 in    
Wind  
Wind Speed 9 mph (West)    
Max Wind Speed 15 mph    
Max Gust Speed 21 mph    
Visibility 10 miles    
Events      
Averages and records for this station are not official NWS values.
T = Trace of Precipitation, MM = Missing Value Source: NWS Daily Summary

Daily Weather History Graph

Daily Weather History Graph

Search for Another Location

Airport or City:

Trip Planner

Search our weather history database for the weather conditions in past years. The results will help you decide how hot, cold, wet, or windy it might be!

Date:

Astronomy

Mar. 19, 2014 Rise Set
Actual Time 7:04 AM MDT 7:10 PM MDT
Civil Twilight 6:33 AM MDT 7:41 PM MDT
Nautical Twilight 5:57 AM MDT 8:16 PM MDT
Astronomical Twilight 5:21 AM MDT 8:53 PM MDT
Moon 10:46 PM MDT (3/19) 8:19 AM MDT (3/19)
Length of Visible Light 13h 07m
Length of Day
12h 06m
Waning Gibbous, 91% of the Moon is Illuminated
Mar 19
Waning Gibbous
Mar 23
Last Quarter
Mar 30
New
Apr 7
First Quarter
Apr 15
Full

Hourly Weather History & Observations

Time (MDT) Temp. Windchill Dew Point Humidity Pressure Visibility Wind Dir Wind Speed Gust Speed Precip Events Conditions
12:15 AM 32.0 °F 23.0 °F 26.6 °F 80% 30.02 in 10.0 mi WNW 11.5 mph - N/A   Overcast
12:35 AM 33.8 °F 23.9 °F 30.2 °F 87% 30.00 in 7.0 mi NW 15.0 mph 18.4 mph N/A   Overcast
12:55 AM 30.2 °F 23.4 °F 28.4 °F 93% 29.99 in 10.0 mi NNW 6.9 mph - N/A   Scattered Clouds
1:15 AM 30.2 °F 22.6 °F 28.4 °F 93% 30.00 in 10.0 mi WSW 8.1 mph - N/A   Scattered Clouds
1:35 AM 30.2 °F 22.6 °F 28.4 °F 93% 30.00 in 10.0 mi WSW 8.1 mph - N/A   Overcast
1:55 AM 30.2 °F 22.6 °F 26.6 °F 86% 30.00 in 10.0 mi West 8.1 mph - N/A   Overcast
2:15 AM 28.4 °F 20.4 °F 24.8 °F 86% 29.99 in 10.0 mi West 8.1 mph - N/A   Overcast
2:35 AM 30.2 °F 21.9 °F 28.4 °F 93% 29.99 in 10.0 mi West 9.2 mph - N/A   Overcast
2:55 AM 30.2 °F 22.6 °F 28.4 °F 93% 29.98 in 10.0 mi West 8.1 mph - N/A   Overcast
3:15 AM 30.2 °F 24.3 °F 26.6 °F 86% 29.98 in 10.0 mi WNW 5.8 mph - N/A   Overcast
3:35 AM 28.4 °F 22.2 °F 24.8 °F 86% 29.97 in 10.0 mi West 5.8 mph - N/A   Scattered Clouds
3:55 AM 28.4 °F 20.4 °F 24.8 °F 86% 29.98 in 10.0 mi NW 8.1 mph - N/A   Clear
4:15 AM 30.2 °F 19.3 °F 28.4 °F 93% 29.97 in 10.0 mi WNW 15.0 mph - N/A   Mostly Cloudy
4:35 AM 32.0 °F 24.8 °F 26.6 °F 80% 29.98 in 10.0 mi West 8.1 mph - N/A   Mostly Cloudy
4:55 AM 30.2 °F 23.4 °F 26.6 °F 86% 29.98 in 10.0 mi NW 6.9 mph - N/A   Scattered Clouds
5:15 AM 30.2 °F 22.6 °F 26.6 °F 86% 29.99 in 10.0 mi NW 8.1 mph - N/A   Partly Cloudy
5:35 AM 28.4 °F - 24.8 °F 86% 29.99 in 10.0 mi Calm Calm - N/A   Partly Cloudy
5:55 AM 26.6 °F 21.2 °F 24.8 °F 93% 29.99 in 10.0 mi WNW 4.6 mph - N/A   Partly Cloudy
6:15 AM 24.8 °F 16.9 °F 19.4 °F 80% 29.99 in 10.0 mi West 6.9 mph - N/A   Scattered Clouds
6:35 AM 23.0 °F 13.1 °F 19.4 °F 86% 30.00 in 10.0 mi West 9.2 mph - N/A   Partly Cloudy
6:55 AM 24.8 °F 14.6 °F 21.2 °F 86% 30.00 in 10.0 mi West 10.4 mph - N/A   Clear
7:15 AM 24.8 °F 15.3 °F 23.0 °F 93% 30.00 in 10.0 mi West 9.2 mph - N/A   Clear
7:35 AM 24.8 °F 16.1 °F 23.0 °F 93% 30.00 in 10.0 mi WNW 8.1 mph - N/A   Clear
7:55 AM 26.6 °F 16.8 °F 24.8 °F 93% 30.00 in 10.0 mi West 10.4 mph - N/A   Clear
8:15 AM 28.4 °F 18.5 °F 26.6 °F 93% 30.00 in 10.0 mi WNW 11.5 mph - N/A   Clear
8:35 AM 32.0 °F 22.5 °F 28.4 °F 87% 30.00 in 10.0 mi West 12.7 mph - N/A   Clear
8:55 AM 33.8 °F 24.3 °F 28.4 °F 81% 30.00 in 10.0 mi WNW 13.8 mph - N/A   Clear
9:15 AM 35.6 °F 26.6 °F 28.4 °F 75% 30.00 in 10.0 mi WNW 13.8 mph - N/A   Clear
9:35 AM 35.6 °F 27.1 °F 28.4 °F 75% 30.00 in 10.0 mi WNW 12.7 mph - N/A   Clear
9:55 AM 37.4 °F 28.9 °F 28.4 °F 70% 30.01 in 10.0 mi West 13.8 mph 19.6 mph N/A   Clear
10:15 AM 39.2 °F 31.2 °F 28.4 °F 65% 30.01 in 10.0 mi WNW 13.8 mph - N/A   Clear
10:35 AM 39.2 °F 32.0 °F 26.6 °F 61% 30.01 in 10.0 mi WNW 11.5 mph - N/A   Clear
10:55 AM 39.2 °F 32.5 °F 28.4 °F 65% 30.01 in 10.0 mi NNW 10.4 mph - N/A   Clear
11:15 AM 42.8 °F 36.6 °F 26.6 °F 53% 30.01 in 10.0 mi WNW 11.5 mph - N/A   Clear
11:35 AM 42.8 °F 37.5 °F 26.6 °F 53% 30.01 in 10.0 mi WNW 9.2 mph - N/A   Clear
11:55 AM 44.6 °F 39.2 °F 24.8 °F 46% 30.00 in 10.0 mi NW 10.4 mph 18.4 mph N/A   Clear
12:15 PM 44.6 °F 39.2 °F 26.6 °F 49% 29.99 in 10.0 mi WNW 10.4 mph - N/A   Partly Cloudy
12:35 PM 46.4 °F 42.9 °F 23.0 °F 40% 29.99 in 10.0 mi NW 6.9 mph 20.7 mph N/A   Partly Cloudy
12:55 PM 46.4 °F 41.1 °F 21.2 °F 37% 29.98 in 10.0 mi West 11.5 mph 18.4 mph N/A   Clear
1:15 PM 48.2 °F - 21.2 °F 34% 29.97 in 10.0 mi West 10.4 mph 18.4 mph N/A   Clear
1:35 PM 48.2 °F - 19.4 °F 32% 29.96 in 10.0 mi WNW 12.7 mph 20.7 mph N/A   Clear
1:55 PM 48.2 °F - 17.6 °F 30% 29.95 in 10.0 mi West 10.4 mph 20.7 mph N/A   Clear
2:15 PM 48.2 °F - 17.6 °F 30% 29.94 in 10.0 mi West 10.4 mph 17.3 mph N/A   Clear
2:35 PM 50.0 °F - 17.6 °F 28% 29.93 in 10.0 mi WSW 11.5 mph 17.3 mph N/A   Clear
2:55 PM 48.2 °F - 15.8 °F 27% 29.92 in 10.0 mi West 13.8 mph 20.7 mph N/A   Clear
3:15 PM 50.0 °F - 15.8 °F 26% 29.91 in 10.0 mi West 11.5 mph 20.7 mph N/A   Clear
3:35 PM 50.0 °F - 17.6 °F 28% 29.91 in 10.0 mi West 12.7 mph - N/A   Partly Cloudy
3:55 PM 50.0 °F - 15.8 °F 26% 29.91 in 10.0 mi WSW 12.7 mph 19.6 mph N/A   Partly Cloudy
4:15 PM 50.0 °F - 15.8 °F 26% 29.90 in 10.0 mi SW 12.7 mph 18.4 mph N/A   Clear
4:35 PM 50.0 °F - 15.8 °F 26% 29.90 in 10.0 mi WSW 11.5 mph 16.1 mph N/A   Clear
4:55 PM 48.2 °F - 15.8 °F 27% 29.89 in 10.0 mi West 10.4 mph - N/A   Clear
5:15 PM 48.2 °F - 15.8 °F 27% 29.90 in 10.0 mi West 10.4 mph 18.4 mph N/A   Clear
5:35 PM 46.4 °F 41.9 °F 15.8 °F 29% 29.90 in 10.0 mi WSW 9.2 mph - N/A   Partly Cloudy
5:55 PM 48.2 °F - 17.6 °F 30% 29.90 in 10.0 mi WSW 11.5 mph - N/A   Scattered Clouds
6:15 PM 46.4 °F 41.9 °F 17.6 °F 32% 29.89 in 10.0 mi WSW 9.2 mph - N/A   Mostly Cloudy
6:35 PM 44.6 °F 40.2 °F 17.6 °F 34% 29.89 in 10.0 mi West 8.1 mph - N/A   Scattered Clouds
6:55 PM 42.8 °F 39.3 °F 17.6 °F 36% 29.89 in 10.0 mi West 5.8 mph - N/A   Clear
7:15 PM 41.0 °F 37.1 °F 21.2 °F 45% 29.90 in 10.0 mi SW 5.8 mph - N/A   Scattered Clouds
7:35 PM 41.0 °F 37.1 °F 21.2 °F 45% 29.89 in 10.0 mi SSW 5.8 mph - N/A   Mostly Cloudy
7:55 PM 39.2 °F 35.0 °F 21.2 °F 49% 29.89 in 10.0 mi SW 5.8 mph - N/A   Clear
8:15 PM 39.2 °F 35.9 °F 21.2 °F 49% 29.89 in 10.0 mi SW 4.6 mph - N/A   Clear
8:35 PM 39.2 °F 35.0 °F 21.2 °F 49% 29.89 in 10.0 mi SW 5.8 mph - N/A   Clear
8:55 PM 39.2 °F 37.0 °F 23.0 °F 52% 29.88 in 10.0 mi SW 3.5 mph - N/A   Clear
9:15 PM 39.2 °F 33.6 °F 21.2 °F 49% 29.88 in 10.0 mi SW 8.1 mph - N/A   Clear
9:35 PM 37.4 °F 32.1 °F 21.2 °F 52% 29.88 in 10.0 mi SW 6.9 mph - N/A   Clear
9:55 PM 37.4 °F 32.8 °F 21.2 °F 52% 29.87 in 10.0 mi SW 5.8 mph - N/A   Clear
10:15 PM 35.6 °F 30.7 °F 21.2 °F 56% 29.87 in 10.0 mi WSW 5.8 mph - N/A   Clear
10:35 PM 35.6 °F 30.7 °F 21.2 °F 56% 29.87 in 10.0 mi SW 5.8 mph - N/A   Clear
10:55 PM 35.6 °F 30.7 °F 23.0 °F 60% 29.87 in 10.0 mi SSW 5.8 mph - N/A   Clear
11:15 PM 35.6 °F 31.7 °F 21.2 °F 56% 29.86 in 10.0 mi SSW 4.6 mph - N/A   Clear
11:35 PM 35.6 °F 30.7 °F 19.4 °F 52% 29.86 in 10.0 mi South 5.8 mph - N/A   Clear
11:55 PM 33.8 °F 28.6 °F 21.2 °F 60% 29.85 in 10.0 mi South 5.8 mph - N/A   Clear